Caldwell, ID

11:38 AM MST on November 23, 2017 (GMT -0700)
Caldwell Industrial

Weather History for KEUL - October, 2013

Change the Weather History Date:

Monday, October 21, 2013

  Actual Average (KBOI) Record (KBOI)
Temperature  
Mean Temperature 50 °F -  
Max Temperature 66 °F 62 °F 84 °F (2003)
Min Temperature 33 °F 38 °F 23 °F (1996)
Degree Days  
Heating Degree Days 16    
Moisture  
Dew Point 32 °F    
Average Humidity 49    
Maximum Humidity 70    
Minimum Humidity 30    
Precipitation  
Precipitation 0.00 in - - ()
Sea Level Pressure  
Sea Level Pressure 30.17 in    
Wind  
Wind Speed 5 mph (NNW)    
Max Wind Speed 12 mph    
Max Gust Speed -    
Visibility 10 miles    
Events      
Averages and records for this station are not official NWS values.
T = Trace of Precipitation, MM = Missing Value Source: NWS Daily Summary

Daily Weather History Graph

Daily Weather History Graph

Search for Another Location

Airport or City:

Trip Planner

Search our weather history database for the weather conditions in past years. The results will help you decide how hot, cold, wet, or windy it might be!

Date:

Astronomy

Oct. 21, 2013 Rise Set
Actual Time 8:08 AM MDT 6:52 PM MDT
Civil Twilight 7:39 AM MDT 7:22 PM MDT
Nautical Twilight 7:05 AM MDT 7:55 PM MDT
Astronomical Twilight 6:32 AM MDT 8:28 PM MDT
Moon 8:44 PM MDT (10/21) 10:52 AM MDT (10/21)
Length of Visible Light 11h 42m
Length of Day
10h 44m
Waning Gibbous, 92% of the Moon is Illuminated
Oct 21
Waning Gibbous
Oct 26
Last Quarter
Nov 3
New
Nov 9
First Quarter
Nov 17
Full

Hourly Weather History & Observations

Time (MDT) Temp. Windchill Dew Point Humidity Pressure Visibility Wind Dir Wind Speed Gust Speed Precip Events Conditions
12:15 AM 48.2 °F - 30.2 °F 50% 30.12 in 10.0 mi SW 5.8 mph - N/A   Clear
12:35 AM 51.8 °F - 32.0 °F 47% 30.12 in 10.0 mi West 5.8 mph - N/A   Clear
12:55 AM 50.0 °F - 32.0 °F 50% 30.12 in 10.0 mi West 9.2 mph - N/A   Clear
1:15 AM 50.0 °F - 32.0 °F 50% 30.12 in 10.0 mi West 8.1 mph - N/A   Clear
1:35 AM 50.0 °F - 32.0 °F 50% 30.13 in 10.0 mi WNW 9.2 mph - N/A   Clear
1:55 AM 48.2 °F - 32.0 °F 54% 30.13 in 10.0 mi West 10.4 mph - N/A   Clear
2:15 AM 48.2 °F - 32.0 °F 54% 30.13 in 10.0 mi WNW 11.5 mph - N/A   Clear
2:35 AM 48.2 °F - 32.0 °F 54% 30.14 in 10.0 mi WNW 10.4 mph - N/A   Clear
2:55 AM 48.2 °F - 32.0 °F 54% 30.14 in 10.0 mi West 11.5 mph - N/A   Clear
3:15 AM 48.2 °F - 32.0 °F 54% 30.15 in 10.0 mi WNW 9.2 mph - N/A   Clear
3:35 AM 48.2 °F - 30.2 °F 50% 30.15 in 10.0 mi WNW 9.2 mph - N/A   Clear
3:55 AM 48.2 °F - 30.2 °F 50% 30.15 in 10.0 mi WSW 6.9 mph - N/A   Clear
4:15 AM 46.4 °F 44.3 °F 30.2 °F 53% 30.15 in 10.0 mi West 4.6 mph - N/A   Clear
4:35 AM 44.6 °F 42.2 °F 30.2 °F 57% 30.15 in 10.0 mi NW 4.6 mph - N/A   Clear
4:55 AM 42.8 °F 38.6 °F 26.6 °F 53% 30.14 in 10.0 mi NNW 6.9 mph - N/A   Clear
5:15 AM 42.8 °F - 28.4 °F 57% 30.15 in 10.0 mi Calm Calm - N/A   Clear
5:35 AM 41.0 °F - 28.4 °F 61% 30.15 in 10.0 mi Calm Calm - N/A   Clear
5:55 AM 39.2 °F 35.9 °F 26.6 °F 61% 30.15 in 10.0 mi NNE 4.6 mph - N/A   Clear
6:15 AM 39.2 °F 35.9 °F 28.4 °F 65% 30.16 in 10.0 mi NE 4.6 mph - N/A   Clear
6:35 AM 37.4 °F 33.8 °F 26.6 °F 65% 30.17 in 10.0 mi ESE 4.6 mph - N/A   Clear
6:55 AM 37.4 °F 32.8 °F 26.6 °F 65% 30.17 in 10.0 mi East 5.8 mph - N/A   Clear
7:15 AM 37.4 °F 34.9 °F 26.6 °F 65% 30.18 in 10.0 mi SSW 3.5 mph - N/A   Clear
7:55 AM 35.6 °F - 24.8 °F 65% 30.18 in 10.0 mi Calm Calm - N/A   Clear
8:15 AM 35.6 °F 30.7 °F 24.8 °F 65% 30.19 in 10.0 mi NE 5.8 mph - N/A   Clear
8:35 AM 33.8 °F 27.0 °F 23.0 °F 65% 30.19 in 10.0 mi NE 8.1 mph - N/A   Clear
8:55 AM 35.6 °F 31.7 °F 26.6 °F 70% 30.20 in 10.0 mi East 4.6 mph - N/A   Clear
9:15 AM 37.4 °F 34.9 °F 28.4 °F 70% 30.21 in 10.0 mi ESE 3.5 mph - N/A   Clear
9:35 AM 41.0 °F 38.0 °F 30.2 °F 65% 30.22 in 10.0 mi East 4.6 mph - N/A   Clear
9:55 AM 44.6 °F 43.1 °F 30.2 °F 57% 30.22 in 10.0 mi ESE 3.5 mph - N/A   Clear
10:15 AM 46.4 °F - 32.0 °F 57% 30.23 in 10.0 mi Calm Calm - N/A   Clear
10:35 AM 48.2 °F - 33.8 °F 58% 30.23 in 10.0 mi Calm Calm - N/A   Clear
10:55 AM 50.0 °F - 33.8 °F 54% 30.23 in 10.0 mi SE 3.5 mph - N/A   Clear
11:15 AM 53.6 °F - 33.8 °F 47% 30.23 in 10.0 mi SE 3.5 mph - N/A   Clear
11:35 AM 53.6 °F - 33.8 °F 47% 30.23 in 10.0 mi Calm Calm - N/A   Clear
11:55 AM 55.4 °F - 33.8 °F 44% 30.23 in 10.0 mi Calm Calm - N/A   Clear
12:15 PM 57.2 °F - 33.8 °F 41% 30.23 in 10.0 mi Calm Calm - N/A   Clear
12:35 PM 57.2 °F - 33.8 °F 41% 30.23 in 10.0 mi West 4.6 mph - N/A   Clear
12:55 PM 59.0 °F - 35.6 °F 42% 30.22 in 10.0 mi Calm Calm - N/A   Clear
1:15 PM 59.0 °F - 35.6 °F 42% 30.21 in 10.0 mi Calm Calm - N/A   Clear
1:35 PM 60.8 °F - 35.6 °F 39% 30.21 in 10.0 mi Calm Calm - N/A   Clear
2:15 PM 62.6 °F - 35.6 °F 37% 30.19 in 10.0 mi Calm Calm - N/A   Clear
2:35 PM 62.6 °F - 35.6 °F 37% 30.18 in 10.0 mi Calm Calm - N/A   Clear
2:55 PM 64.4 °F - 35.6 °F 34% 30.18 in 10.0 mi NNE 5.8 mph - N/A   Clear
3:15 PM 64.4 °F - 35.6 °F 34% 30.17 in 10.0 mi Calm Calm - N/A   Clear
3:35 PM 64.4 °F - 35.6 °F 34% 30.17 in 10.0 mi North 3.5 mph - N/A   Clear
3:55 PM 66.2 °F - 35.6 °F 32% 30.17 in 10.0 mi North 6.9 mph - N/A   Clear
4:15 PM 66.2 °F - 35.6 °F 32% 30.17 in 10.0 mi NW 4.6 mph - N/A   Clear
4:35 PM 66.2 °F - 35.6 °F 32% 30.17 in 10.0 mi NE 4.6 mph - N/A   Clear
4:55 PM 66.2 °F - 35.6 °F 32% 30.16 in 10.0 mi NW 5.8 mph - N/A   Clear
5:15 PM 66.2 °F - 33.8 °F 30% 30.16 in 10.0 mi NNW 5.8 mph - N/A   Clear
5:35 PM 64.4 °F - 33.8 °F 32% 30.16 in 10.0 mi NNW 3.5 mph - N/A   Clear
5:55 PM 64.4 °F - 33.8 °F 32% 30.15 in 10.0 mi Calm Calm - N/A   Clear
6:15 PM 64.4 °F - 33.8 °F 32% 30.15 in 10.0 mi NW 3.5 mph - N/A   Clear
6:35 PM 62.6 °F - 33.8 °F 34% 30.15 in 10.0 mi Calm Calm - N/A   Clear
6:55 PM 62.6 °F - 33.8 °F 34% 30.15 in 10.0 mi Calm Calm - N/A   Clear
7:15 PM 60.8 °F - 33.8 °F 36% 30.15 in 10.0 mi Calm Calm - N/A   Clear
7:35 PM 57.2 °F - 33.8 °F 41% 30.15 in 10.0 mi Calm Calm - N/A   Clear
7:55 PM 57.2 °F - 33.8 °F 41% 30.15 in 10.0 mi Calm Calm - N/A   Clear
8:15 PM 55.4 °F - 33.8 °F 44% 30.15 in 10.0 mi Calm Calm - N/A   Clear
8:35 PM 51.8 °F - 33.8 °F 50% 30.16 in 10.0 mi Calm Calm - N/A   Clear
8:55 PM 51.8 °F - 33.8 °F 50% 30.16 in 10.0 mi Calm Calm - N/A   Clear
9:15 PM 51.8 °F - 33.8 °F 50% 30.16 in 10.0 mi Calm Calm - N/A   Clear
9:35 PM 50.0 °F - 33.8 °F 54% 30.17 in 10.0 mi South 3.5 mph - N/A   Clear
9:55 PM 48.2 °F - 33.8 °F 58% 30.17 in 10.0 mi SSE 3.5 mph - N/A   Clear
10:15 PM 46.4 °F - 28.4 °F 50% 30.17 in 10.0 mi Calm Calm - N/A   Clear
10:35 PM 44.6 °F 42.2 °F 28.4 °F 53% 30.17 in 10.0 mi East 4.6 mph - N/A   Clear
10:55 PM 42.8 °F 39.3 °F 26.6 °F 53% 30.18 in 10.0 mi ENE 5.8 mph - N/A   Clear
11:15 PM 42.8 °F 40.1 °F 28.4 °F 57% 30.18 in 10.0 mi ESE 4.6 mph - N/A   Clear
11:35 PM 42.8 °F - 30.2 °F 61% 30.19 in 10.0 mi Calm Calm - N/A   Clear
11:55 PM 42.8 °F - 28.4 °F 57% 30.19 in 9.0 mi Calm Calm - N/A   Clear